Year,Month,Day,Hour,Minute,Value (Times are PST for temperature in C)
2014,07,16,00,00,18.70
2014,07,16,00,01,18.70
2014,07,16,00,02,18.70
2014,07,16,00,03,18.70
2014,07,16,00,04,18.70
2014,07,16,00,05,18.70
2014,07,16,00,06,18.70
2014,07,16,00,07,18.60
2014,07,16,00,08,18.60
2014,07,16,00,09,18.60
2014,07,16,00,10,18.60
2014,07,16,00,11,18.60
2014,07,16,00,12,18.50
2014,07,16,00,13,18.50
2014,07,16,00,14,18.50
2014,07,16,00,15,18.40
2014,07,16,00,16,18.40
2014,07,16,00,17,18.30
2014,07,16,00,18,18.30
2014,07,16,00,19,18.30
2014,07,16,00,20,18.20
2014,07,16,00,21,18.20
2014,07,16,00,22,18.20
2014,07,16,00,23,18.20
2014,07,16,00,24,18.10
2014,07,16,00,25,18.10
2014,07,16,00,26,18.10
2014,07,16,00,27,18.10
2014,07,16,00,28,18.10
2014,07,16,00,29,18.00
2014,07,16,00,30,18.00
2014,07,16,00,31,18.00
2014,07,16,00,32,17.90
2014,07,16,00,33,17.90
2014,07,16,00,34,17.90
2014,07,16,00,35,17.90
2014,07,16,00,36,17.90
2014,07,16,00,37,17.90
2014,07,16,00,38,17.90
2014,07,16,00,39,17.90
2014,07,16,00,40,17.80
2014,07,16,00,41,17.80
2014,07,16,00,42,17.80
2014,07,16,00,43,17.80
2014,07,16,00,44,17.70
2014,07,16,00,45,17.70
2014,07,16,00,46,17.70
2014,07,16,00,47,17.70
2014,07,16,00,48,17.70
2014,07,16,00,49,17.60
2014,07,16,00,50,17.60
2014,07,16,00,51,17.60
2014,07,16,00,52,17.60
2014,07,16,00,53,17.60
2014,07,16,00,54,17.60
2014,07,16,00,55,17.60
2014,07,16,00,56,17.50
2014,07,16,00,57,17.50
2014,07,16,00,58,17.50
2014,07,16,00,59,17.50
2014,07,16,01,00,17.50
2014,07,16,01,01,17.50
2014,07,16,01,02,17.50
2014,07,16,01,03,17.50
2014,07,16,01,04,17.40
2014,07,16,01,05,17.40
2014,07,16,01,06,17.40
2014,07,16,01,07,17.40
2014,07,16,01,08,17.40
2014,07,16,01,09,17.40
2014,07,16,01,10,17.40
2014,07,16,01,11,17.40
2014,07,16,01,12,17.30
2014,07,16,01,13,17.30
2014,07,16,01,14,17.30
2014,07,16,01,15,17.30
2014,07,16,01,16,17.30
2014,07,16,01,17,17.30
2014,07,16,01,18,17.20
2014,07,16,01,19,17.20
2014,07,16,01,20,17.20
2014,07,16,01,21,17.20
2014,07,16,01,22,17.20
2014,07,16,01,23,17.20
2014,07,16,01,24,17.20
2014,07,16,01,25,17.10
2014,07,16,01,26,17.10
2014,07,16,01,27,17.20
2014,07,16,01,28,17.20
2014,07,16,01,29,17.20
2014,07,16,01,30,17.20
2014,07,16,01,31,17.20
2014,07,16,01,32,17.30
2014,07,16,01,33,17.30
2014,07,16,01,34,17.30
2014,07,16,01,35,17.30
2014,07,16,01,36,17.30
2014,07,16,01,37,17.20
2014,07,16,01,38,17.20
2014,07,16,01,39,17.20
2014,07,16,01,40,17.20
2014,07,16,01,41,17.20
2014,07,16,01,42,17.20
2014,07,16,01,43,17.20
2014,07,16,01,44,17.20
2014,07,16,01,45,17.20
2014,07,16,01,46,17.10
2014,07,16,01,47,17.10
2014,07,16,01,48,17.10
2014,07,16,01,49,17.10
2014,07,16,01,50,17.10
2014,07,16,01,51,17.10
2014,07,16,01,52,17.00
2014,07,16,01,53,17.00
2014,07,16,01,54,16.90
2014,07,16,01,55,16.90
2014,07,16,01,56,16.90
2014,07,16,01,57,16.90
2014,07,16,01,58,16.90
2014,07,16,01,59,16.80
2014,07,16,02,00,16.80
2014,07,16,02,01,16.80
2014,07,16,02,02,16.80
2014,07,16,02,03,16.80
2014,07,16,02,04,16.70
2014,07,16,02,05,16.70
2014,07,16,02,06,16.70
2014,07,16,02,07,16.70
2014,07,16,02,08,16.70
2014,07,16,02,09,16.70
2014,07,16,02,10,16.70
2014,07,16,02,11,16.70
2014,07,16,02,12,16.70
2014,07,16,02,13,16.70
2014,07,16,02,14,16.60
2014,07,16,02,15,16.60
2014,07,16,02,16,16.60
2014,07,16,02,17,16.60
2014,07,16,02,18,16.60
2014,07,16,02,19,16.50
2014,07,16,02,20,16.50
2014,07,16,02,21,16.40
2014,07,16,02,22,16.40
2014,07,16,02,23,16.40
2014,07,16,02,24,16.30
2014,07,16,02,25,16.30
2014,07,16,02,26,16.30
2014,07,16,02,27,16.30
2014,07,16,02,28,16.30
2014,07,16,02,29,16.30
2014,07,16,02,30,16.20
2014,07,16,02,31,16.20
2014,07,16,02,32,16.20
2014,07,16,02,33,16.20
2014,07,16,02,34,16.10
2014,07,16,02,35,16.10
2014,07,16,02,36,16.10
2014,07,16,02,37,16.10
2014,07,16,02,38,16.10
2014,07,16,02,39,16.10
2014,07,16,02,40,16.10
2014,07,16,02,41,16.10
2014,07,16,02,42,16.10
2014,07,16,02,43,16.10
2014,07,16,02,44,16.00
2014,07,16,02,45,16.00
2014,07,16,02,46,16.00
2014,07,16,02,47,16.00
2014,07,16,02,48,16.00
2014,07,16,02,49,16.00
2014,07,16,02,50,16.00
2014,07,16,02,51,15.90
2014,07,16,02,52,15.90
2014,07,16,02,53,15.90
2014,07,16,02,54,15.90
2014,07,16,02,55,15.90
2014,07,16,02,56,15.90
2014,07,16,02,57,15.90
2014,07,16,02,58,15.90
2014,07,16,02,59,15.90
2014,07,16,03,00,15.90
2014,07,16,03,01,15.80
2014,07,16,03,02,15.80
2014,07,16,03,03,15.80
2014,07,16,03,04,15.80
2014,07,16,03,05,15.70
2014,07,16,03,06,15.70
2014,07,16,03,07,15.70
2014,07,16,03,08,15.60
2014,07,16,03,09,15.60
2014,07,16,03,10,15.60
2014,07,16,03,11,15.60
2014,07,16,03,12,15.60
2014,07,16,03,13,15.60
2014,07,16,03,14,15.60
2014,07,16,03,15,15.60
2014,07,16,03,16,15.60
2014,07,16,03,17,15.60
2014,07,16,03,18,15.60
2014,07,16,03,19,15.60
2014,07,16,03,20,15.60
2014,07,16,03,21,15.60
2014,07,16,03,22,15.60
2014,07,16,03,23,15.60
2014,07,16,03,24,15.50
2014,07,16,03,25,15.50
2014,07,16,03,26,15.50
2014,07,16,03,27,15.40
2014,07,16,03,28,15.40
2014,07,16,03,29,15.40
2014,07,16,03,30,15.40
2014,07,16,03,31,15.40
2014,07,16,03,32,15.40
2014,07,16,03,33,15.40
2014,07,16,03,34,15.40
2014,07,16,03,35,15.40
2014,07,16,03,36,15.40
2014,07,16,03,37,15.30
2014,07,16,03,38,15.30
2014,07,16,03,39,15.30
2014,07,16,03,40,15.30
2014,07,16,03,41,15.20
2014,07,16,03,42,15.20
2014,07,16,03,43,15.20
2014,07,16,03,44,15.20
2014,07,16,03,45,15.20
2014,07,16,03,46,15.20
2014,07,16,03,47,15.20
2014,07,16,03,48,15.20
2014,07,16,03,49,15.20
2014,07,16,03,50,15.20
2014,07,16,03,51,15.20
2014,07,16,03,52,15.20
2014,07,16,03,53,15.10
2014,07,16,03,54,15.10
2014,07,16,03,55,15.10
2014,07,16,03,56,15.10
2014,07,16,03,57,15.10
2014,07,16,03,58,15.10
2014,07,16,03,59,15.10
2014,07,16,04,00,15.00
2014,07,16,04,01,15.00
2014,07,16,04,02,15.00
2014,07,16,04,03,15.00
2014,07,16,04,04,15.00
2014,07,16,04,05,15.00
2014,07,16,04,06,15.10
2014,07,16,04,07,15.10
2014,07,16,04,08,15.10
2014,07,16,04,09,15.10
2014,07,16,04,10,15.10
2014,07,16,04,11,15.10
2014,07,16,04,12,15.10
2014,07,16,04,13,15.10
2014,07,16,04,14,15.10
2014,07,16,04,15,15.00
2014,07,16,04,16,15.00
2014,07,16,04,17,15.00
2014,07,16,04,18,15.00
2014,07,16,04,19,15.00
2014,07,16,04,20,15.00
2014,07,16,04,21,15.00
2014,07,16,04,22,15.00
2014,07,16,04,23,15.00
2014,07,16,04,24,15.00
2014,07,16,04,25,15.00
2014,07,16,04,26,15.00
2014,07,16,04,27,15.00
2014,07,16,04,28,15.00
2014,07,16,04,29,15.00
2014,07,16,04,30,15.00
2014,07,16,04,31,15.00
2014,07,16,04,32,15.00
2014,07,16,04,33,15.00
2014,07,16,04,34,15.00
2014,07,16,04,35,15.00
2014,07,16,04,36,15.00
2014,07,16,04,37,15.00
2014,07,16,04,38,15.00
2014,07,16,04,39,15.00
2014,07,16,04,40,15.00
2014,07,16,04,41,15.00
2014,07,16,04,42,15.00
2014,07,16,04,43,15.10
2014,07,16,04,44,15.20
2014,07,16,04,45,15.30
2014,07,16,04,46,15.30
2014,07,16,04,47,15.30
2014,07,16,04,48,15.40
2014,07,16,04,49,15.40
2014,07,16,04,50,15.40
2014,07,16,04,51,15.50
2014,07,16,04,52,15.60
2014,07,16,04,53,15.60
2014,07,16,04,54,15.70
2014,07,16,04,55,15.70
2014,07,16,04,56,15.70
2014,07,16,04,57,15.70
2014,07,16,04,58,15.70
2014,07,16,04,59,15.70
2014,07,16,05,00,15.70
2014,07,16,05,01,15.70
2014,07,16,05,02,15.70
2014,07,16,05,03,15.70
2014,07,16,05,04,15.70
2014,07,16,05,05,15.70
2014,07,16,05,06,15.70
2014,07,16,05,07,15.70
2014,07,16,05,08,15.70
2014,07,16,05,09,15.70
2014,07,16,05,10,15.70
2014,07,16,05,11,15.80
2014,07,16,05,12,15.80
2014,07,16,05,13,15.80
2014,07,16,05,14,15.80
2014,07,16,05,15,15.90
2014,07,16,05,16,15.90
2014,07,16,05,17,15.90
2014,07,16,05,18,15.80
2014,07,16,05,19,15.80
2014,07,16,05,20,15.80
2014,07,16,05,21,15.80
2014,07,16,05,22,15.80
2014,07,16,05,23,15.80
2014,07,16,05,24,15.70
2014,07,16,05,25,15.70
2014,07,16,05,26,15.70
2014,07,16,05,27,15.60
2014,07,16,05,28,15.60
2014,07,16,05,29,15.60
2014,07,16,05,30,15.60
2014,07,16,05,31,15.60
2014,07,16,05,32,15.60
2014,07,16,05,33,15.60
2014,07,16,05,34,15.60
2014,07,16,05,35,15.60
2014,07,16,05,36,15.60
2014,07,16,05,37,15.60
2014,07,16,05,38,15.60
2014,07,16,05,39,15.60
2014,07,16,05,40,15.60
2014,07,16,05,41,15.60
2014,07,16,05,42,15.60
2014,07,16,05,43,15.60
2014,07,16,05,44,15.60
2014,07,16,05,45,15.60
2014,07,16,05,46,15.60
2014,07,16,05,47,15.60
2014,07,16,05,48,15.60
2014,07,16,05,49,15.60
2014,07,16,05,50,15.70
2014,07,16,05,51,15.70
2014,07,16,05,52,15.80
2014,07,16,05,53,15.80
2014,07,16,05,54,15.80
2014,07,16,05,55,15.80
2014,07,16,05,56,15.80
2014,07,16,05,57,15.90
2014,07,16,05,58,15.90
2014,07,16,05,59,15.90
2014,07,16,06,00,15.90
2014,07,16,06,01,16.00
2014,07,16,06,02,16.00
2014,07,16,06,03,16.00
2014,07,16,06,04,16.00
2014,07,16,06,05,16.10
2014,07,16,06,06,16.10
2014,07,16,06,07,16.10
2014,07,16,06,08,16.10
2014,07,16,06,09,16.10
2014,07,16,06,10,16.10
2014,07,16,06,11,16.20
2014,07,16,06,12,16.20
2014,07,16,06,13,16.30
2014,07,16,06,14,16.30
2014,07,16,06,15,16.40
2014,07,16,06,16,16.40
2014,07,16,06,17,16.50
2014,07,16,06,18,16.50
2014,07,16,06,19,16.60
2014,07,16,06,20,16.60
2014,07,16,06,21,16.60
2014,07,16,06,22,16.70
2014,07,16,06,23,16.70
2014,07,16,06,24,16.70
2014,07,16,06,25,16.70
2014,07,16,06,26,16.70
2014,07,16,06,27,16.70
2014,07,16,06,28,16.70
2014,07,16,06,29,16.70
2014,07,16,06,30,16.70
2014,07,16,06,31,16.70
2014,07,16,06,32,16.70
2014,07,16,06,33,16.70
2014,07,16,06,34,16.70
2014,07,16,06,35,16.70
2014,07,16,06,36,16.80
2014,07,16,06,37,16.80
2014,07,16,06,38,16.80
2014,07,16,06,39,16.80
2014,07,16,06,40,16.80
2014,07,16,06,41,16.80
2014,07,16,06,42,16.90
2014,07,16,06,43,16.90
2014,07,16,06,44,16.90
2014,07,16,06,45,17.00
2014,07,16,06,46,17.00
2014,07,16,06,47,17.10
2014,07,16,06,48,17.10
2014,07,16,06,49,17.10
2014,07,16,06,50,17.10
2014,07,16,06,51,17.10
2014,07,16,06,52,17.20
2014,07,16,06,53,17.20
2014,07,16,06,54,17.20
2014,07,16,06,55,17.20
2014,07,16,06,56,17.20
2014,07,16,06,57,17.30
2014,07,16,06,58,17.30
2014,07,16,06,59,17.30
2014,07,16,07,00,17.40
2014,07,16,07,01,17.40
2014,07,16,07,02,17.40
2014,07,16,07,03,17.50
2014,07,16,07,04,17.50
2014,07,16,07,05,17.60
2014,07,16,07,06,17.60
2014,07,16,07,07,17.60
2014,07,16,07,08,17.60
2014,07,16,07,09,17.70
2014,07,16,07,10,17.70
2014,07,16,07,11,17.70
2014,07,16,07,12,17.70
2014,07,16,07,13,17.70
2014,07,16,07,14,17.70
2014,07,16,07,15,17.70
2014,07,16,07,16,17.70
2014,07,16,07,17,17.70
2014,07,16,07,18,17.80
2014,07,16,07,19,17.80
2014,07,16,07,20,17.80
2014,07,16,07,21,17.90
2014,07,16,07,22,17.90
2014,07,16,07,23,18.00
2014,07,16,07,24,18.00
2014,07,16,07,25,18.10
2014,07,16,07,26,18.10
2014,07,16,07,27,18.10
2014,07,16,07,28,18.10
2014,07,16,07,29,18.20
2014,07,16,07,30,18.20
2014,07,16,07,31,18.20
2014,07,16,07,32,18.20
2014,07,16,07,33,18.20
2014,07,16,07,34,18.20
2014,07,16,07,35,18.30
2014,07,16,07,36,18.30
2014,07,16,07,37,18.30
2014,07,16,07,38,18.30
2014,07,16,07,39,18.30
2014,07,16,07,40,18.30
2014,07,16,07,41,18.30
2014,07,16,07,42,18.40
2014,07,16,07,43,18.30
2014,07,16,07,44,18.30
2014,07,16,07,45,18.30
2014,07,16,07,46,18.40
2014,07,16,07,47,18.40
2014,07,16,07,48,18.40
2014,07,16,07,49,18.40
2014,07,16,07,50,18.40
2014,07,16,07,51,18.40
2014,07,16,07,52,18.40
2014,07,16,07,53,18.50
2014,07,16,07,54,18.50
2014,07,16,07,55,18.50
2014,07,16,07,56,18.60
2014,07,16,07,57,18.60
2014,07,16,07,58,18.70
2014,07,16,07,59,18.70
2014,07,16,08,00,18.70
2014,07,16,08,01,18.80
2014,07,16,08,02,18.80
2014,07,16,08,03,18.80
2014,07,16,08,04,18.80
2014,07,16,08,05,18.90
2014,07,16,08,06,18.90
2014,07,16,08,07,18.90
2014,07,16,08,08,18.90
2014,07,16,08,09,18.90
2014,07,16,08,10,18.90
2014,07,16,08,11,19.00
2014,07,16,08,12,19.00
2014,07,16,08,13,19.10
2014,07,16,08,14,19.10
2014,07,16,08,15,19.10
2014,07,16,08,16,19.20
2014,07,16,08,17,19.20
2014,07,16,08,18,19.20
2014,07,16,08,19,19.30
2014,07,16,08,20,19.30
2014,07,16,08,21,19.40
2014,07,16,08,22,19.50
2014,07,16,08,23,19.50
2014,07,16,08,24,19.60
2014,07,16,08,25,19.60
2014,07,16,08,26,19.60
2014,07,16,08,27,19.60
2014,07,16,08,28,19.70
2014,07,16,08,29,19.70
2014,07,16,08,30,19.70
2014,07,16,08,31,19.70
2014,07,16,08,32,19.70
2014,07,16,08,33,19.70
2014,07,16,08,34,19.70
2014,07,16,08,35,19.70
2014,07,16,08,36,19.80
2014,07,16,08,37,19.80
2014,07,16,08,38,19.80
2014,07,16,08,39,19.80
2014,07,16,08,40,19.90
2014,07,16,08,41,19.90
2014,07,16,08,42,19.90
2014,07,16,08,43,19.90
2014,07,16,08,44,19.90
2014,07,16,08,45,19.90
2014,07,16,08,46,19.90
2014,07,16,08,47,20.00
2014,07,16,08,48,20.00
2014,07,16,08,49,20.00
2014,07,16,08,50,20.00
2014,07,16,08,51,20.10
2014,07,16,08,52,20.10
2014,07,16,08,53,20.20
2014,07,16,08,54,20.20
2014,07,16,08,55,20.30
2014,07,16,08,56,20.30
2014,07,16,08,57,20.30
2014,07,16,08,58,20.40
2014,07,16,08,59,20.40
2014,07,16,09,00,20.40
2014,07,16,09,01,20.40
2014,07,16,09,02,20.40
2014,07,16,09,03,20.40
2014,07,16,09,04,20.40
2014,07,16,09,05,20.40
2014,07,16,09,06,20.40
2014,07,16,09,07,20.40
2014,07,16,09,08,20.40
2014,07,16,09,09,20.50
2014,07,16,09,10,20.50
2014,07,16,09,11,20.50
2014,07,16,09,12,20.50
2014,07,16,09,13,20.50
2014,07,16,09,14,20.50
2014,07,16,09,15,20.60
2014,07,16,09,16,20.60
2014,07,16,09,17,20.50
2014,07,16,09,18,20.60
2014,07,16,09,19,20.60
2014,07,16,09,20,20.70
2014,07,16,09,21,20.80
2014,07,16,09,22,20.80
2014,07,16,09,23,20.80
2014,07,16,09,24,20.90
2014,07,16,09,25,21.00
2014,07,16,09,26,21.00
2014,07,16,09,27,21.00
2014,07,16,09,28,21.10
2014,07,16,09,29,21.10
2014,07,16,09,30,21.10
2014,07,16,09,31,21.10
2014,07,16,09,32,21.10
2014,07,16,09,33,21.10
2014,07,16,09,34,21.10
2014,07,16,09,35,21.00
2014,07,16,09,36,21.00
2014,07,16,09,37,20.90
2014,07,16,09,38,20.90
2014,07,16,09,39,20.90
2014,07,16,09,40,20.80
2014,07,16,09,41,20.80
2014,07,16,09,42,20.90
2014,07,16,09,43,21.00
2014,07,16,09,44,21.00
2014,07,16,09,45,21.10
2014,07,16,09,46,21.00
2014,07,16,09,47,20.90
2014,07,16,09,48,20.80
2014,07,16,09,49,20.80
2014,07,16,09,50,20.80
2014,07,16,09,51,20.80
2014,07,16,09,52,20.80
2014,07,16,09,53,20.90
2014,07,16,09,54,20.90
2014,07,16,09,55,21.00
2014,07,16,09,56,21.00
2014,07,16,09,57,21.00
2014,07,16,09,58,21.00
2014,07,16,09,59,21.00
2014,07,16,10,00,21.10
2014,07,16,10,01,21.00
2014,07,16,10,02,21.00
2014,07,16,10,03,20.90
2014,07,16,10,04,20.90
2014,07,16,10,05,21.00
2014,07,16,10,06,21.10
2014,07,16,10,07,21.20
2014,07,16,10,08,21.20
2014,07,16,10,09,21.20
2014,07,16,10,10,21.20
2014,07,16,10,11,21.20
2014,07,16,10,12,21.30
2014,07,16,10,13,21.30
2014,07,16,10,14,21.30
2014,07,16,10,15,21.30
2014,07,16,10,16,21.40
2014,07,16,10,17,21.40
2014,07,16,10,18,21.40
2014,07,16,10,19,21.50
2014,07,16,10,20,21.60
2014,07,16,10,21,21.70
2014,07,16,10,22,21.70
2014,07,16,10,23,21.80
2014,07,16,10,24,21.80
2014,07,16,10,25,21.80
2014,07,16,10,26,21.80
2014,07,16,10,27,21.80
2014,07,16,10,28,21.80
2014,07,16,10,29,21.80
2014,07,16,10,30,21.70
2014,07,16,10,31,21.60
2014,07,16,10,32,21.40
2014,07,16,10,33,21.40
2014,07,16,10,34,21.30
2014,07,16,10,35,21.20
2014,07,16,10,36,21.30
2014,07,16,10,37,21.30
2014,07,16,10,38,21.40
2014,07,16,10,39,21.30
2014,07,16,10,40,21.30
2014,07,16,10,41,21.20
2014,07,16,10,42,21.20
2014,07,16,10,43,21.10
2014,07,16,10,44,21.00
2014,07,16,10,45,21.00
2014,07,16,10,46,21.00
2014,07,16,10,47,21.10
2014,07,16,10,48,21.10
2014,07,16,10,49,21.10
2014,07,16,10,50,21.20
2014,07,16,10,51,21.10
2014,07,16,10,52,21.10
2014,07,16,10,53,21.10
2014,07,16,10,54,21.10
2014,07,16,10,55,21.10
2014,07,16,10,56,21.10
2014,07,16,10,57,21.10
2014,07,16,10,58,21.00
2014,07,16,10,59,20.90
2014,07,16,11,00,20.80
2014,07,16,11,01,20.70
2014,07,16,11,02,20.60
2014,07,16,11,03,20.50
2014,07,16,11,04,20.40
2014,07,16,11,05,20.30
2014,07,16,11,06,20.20
2014,07,16,11,07,20.10
2014,07,16,11,08,20.00
2014,07,16,11,09,19.90
2014,07,16,11,10,19.90
2014,07,16,11,11,19.90
2014,07,16,11,12,19.90
2014,07,16,11,13,19.80
2014,07,16,11,14,19.90
2014,07,16,11,15,20.00
2014,07,16,11,16,19.90
2014,07,16,11,17,19.90
2014,07,16,11,18,19.90
2014,07,16,11,19,19.90
2014,07,16,11,20,19.90
2014,07,16,11,21,20.00
2014,07,16,11,22,20.00
2014,07,16,11,23,20.10
2014,07,16,11,24,20.10
2014,07,16,11,25,20.20
2014,07,16,11,26,20.30
2014,07,16,11,27,20.40
2014,07,16,11,28,20.50
2014,07,16,11,29,20.70
2014,07,16,11,30,20.70
2014,07,16,11,31,20.60
2014,07,16,11,32,20.40
2014,07,16,11,33,20.40
2014,07,16,11,34,20.40
2014,07,16,11,35,20.40
2014,07,16,11,36,20.30
2014,07,16,11,37,20.30
2014,07,16,11,38,20.30
2014,07,16,11,39,20.40
2014,07,16,11,40,20.50
2014,07,16,11,41,20.60
2014,07,16,11,42,20.70
2014,07,16,11,43,20.70
2014,07,16,11,44,20.80
2014,07,16,11,45,20.90
2014,07,16,11,46,20.90
2014,07,16,11,47,20.90
2014,07,16,11,48,20.70
2014,07,16,11,49,20.60
2014,07,16,11,50,20.50
2014,07,16,11,51,20.50
2014,07,16,11,52,20.50
2014,07,16,11,53,20.60
2014,07,16,11,54,20.70
2014,07,16,11,55,20.80
2014,07,16,11,56,20.90
2014,07,16,11,57,21.00
2014,07,16,11,58,20.80
2014,07,16,11,59,20.80
2014,07,16,12,00,20.70
2014,07,16,12,01,20.80
2014,07,16,12,02,20.80
2014,07,16,12,03,20.90
2014,07,16,12,04,21.10
2014,07,16,12,05,21.20
2014,07,16,12,06,21.40
2014,07,16,12,07,21.50
2014,07,16,12,08,21.60
2014,07,16,12,09,21.60
2014,07,16,12,10,21.60
2014,07,16,12,11,21.50
2014,07,16,12,12,21.40
2014,07,16,12,13,21.30
2014,07,16,12,14,21.30
2014,07,16,12,15,21.30
2014,07,16,12,16,21.20
2014,07,16,12,17,21.20
2014,07,16,12,18,21.30
2014,07,16,12,19,21.20
2014,07,16,12,20,21.20
2014,07,16,12,21,21.10
2014,07,16,12,22,21.00
2014,07,16,12,23,20.90
2014,07,16,12,24,21.00
2014,07,16,12,25,21.00
2014,07,16,12,26,20.80
2014,07,16,12,27,20.80
2014,07,16,12,28,20.80
2014,07,16,12,29,20.90
2014,07,16,12,30,21.00
2014,07,16,12,31,21.00
2014,07,16,12,32,21.00
2014,07,16,12,33,21.00
2014,07,16,12,34,20.90
2014,07,16,12,35,20.80
2014,07,16,12,36,20.70
2014,07,16,12,37,20.80
2014,07,16,12,38,20.90
2014,07,16,12,39,20.90
2014,07,16,12,40,20.90
2014,07,16,12,41,21.00
2014,07,16,12,42,21.20
2014,07,16,12,43,21.30
2014,07,16,12,44,21.50
2014,07,16,12,45,21.60
2014,07,16,12,46,21.60
2014,07,16,12,47,21.60
2014,07,16,12,48,21.60
2014,07,16,12,49,21.60
2014,07,16,12,50,21.60
2014,07,16,12,51,21.70
2014,07,16,12,52,21.80
2014,07,16,12,53,21.70
2014,07,16,12,54,21.70
2014,07,16,12,55,21.80
2014,07,16,12,56,21.80
2014,07,16,12,57,22.00
2014,07,16,12,58,22.10
2014,07,16,12,59,22.20
2014,07,16,13,00,22.30
2014,07,16,13,01,22.40
2014,07,16,13,02,22.50
2014,07,16,13,03,22.50
2014,07,16,13,04,22.50
2014,07,16,13,05,22.60
2014,07,16,13,06,22.60
2014,07,16,13,07,22.60
2014,07,16,13,08,22.70
2014,07,16,13,09,22.70
2014,07,16,13,10,22.70
2014,07,16,13,11,22.70
2014,07,16,13,12,22.80
2014,07,16,13,13,22.80
2014,07,16,13,14,22.80
2014,07,16,13,15,22.80
2014,07,16,13,16,22.90
2014,07,16,13,17,23.00
2014,07,16,13,18,23.00
2014,07,16,13,19,23.00
2014,07,16,13,20,23.10
2014,07,16,13,21,23.20
2014,07,16,13,22,23.30
2014,07,16,13,23,23.30
2014,07,16,13,24,23.40
2014,07,16,13,25,23.40
2014,07,16,13,26,23.40
2014,07,16,13,27,23.40
2014,07,16,13,28,23.40
2014,07,16,13,29,23.40
2014,07,16,13,30,23.50
2014,07,16,13,31,23.50
2014,07,16,13,32,23.40
2014,07,16,13,33,23.40
2014,07,16,13,34,23.40
2014,07,16,13,35,23.40
2014,07,16,13,36,23.50
2014,07,16,13,37,23.50
2014,07,16,13,38,23.60
2014,07,16,13,39,23.60
2014,07,16,13,40,23.70
2014,07,16,13,41,23.80
2014,07,16,13,42,23.80
2014,07,16,13,43,23.80
2014,07,16,13,44,23.80
2014,07,16,13,45,23.80
2014,07,16,13,46,23.80
2014,07,16,13,47,23.80
2014,07,16,13,48,23.70
2014,07,16,13,49,23.60
2014,07,16,13,50,23.70
2014,07,16,13,51,23.70
2014,07,16,13,52,23.70
2014,07,16,13,53,23.80
2014,07,16,13,54,23.80
2014,07,16,13,55,23.80
2014,07,16,13,56,23.90
2014,07,16,13,57,24.00
2014,07,16,13,58,24.10
2014,07,16,13,59,24.10
2014,07,16,14,00,24.20
2014,07,16,14,01,24.10
2014,07,16,14,02,24.10
2014,07,16,14,03,24.10
2014,07,16,14,04,24.10
2014,07,16,14,05,24.10
2014,07,16,14,06,24.10
2014,07,16,14,07,24.10
2014,07,16,14,08,24.10
2014,07,16,14,09,24.20
2014,07,16,14,10,24.20
2014,07,16,14,11,24.20
2014,07,16,14,12,24.30
2014,07,16,14,13,24.30
2014,07,16,14,14,24.20
2014,07,16,14,15,24.20
2014,07,16,14,16,24.30
2014,07,16,14,17,24.40
2014,07,16,14,18,24.50
2014,07,16,14,19,24.50
2014,07,16,14,20,24.70
2014,07,16,14,21,24.80
2014,07,16,14,22,24.80
2014,07,16,14,23,24.70
2014,07,16,14,24,24.50
2014,07,16,14,25,24.30
2014,07,16,14,26,24.20
2014,07,16,14,27,24.20
2014,07,16,14,28,24.20
2014,07,16,14,29,24.20
2014,07,16,14,30,24.20
2014,07,16,14,31,24.20
2014,07,16,14,32,24.20
2014,07,16,14,33,24.30
2014,07,16,14,34,24.40
2014,07,16,14,35,24.40
2014,07,16,14,36,24.40
2014,07,16,14,37,24.40
2014,07,16,14,38,24.40
2014,07,16,14,39,24.40
2014,07,16,14,40,24.50
2014,07,16,14,41,24.50
2014,07,16,14,42,24.40
2014,07,16,14,43,24.30
2014,07,16,14,44,24.30
2014,07,16,14,45,24.40
2014,07,16,14,46,24.40
2014,07,16,14,47,24.50
2014,07,16,14,48,24.60
2014,07,16,14,49,24.70
2014,07,16,14,50,24.80
2014,07,16,14,51,24.80
2014,07,16,14,52,24.80
2014,07,16,14,53,24.90
2014,07,16,14,54,25.00
2014,07,16,14,55,25.10
2014,07,16,14,56,25.20
2014,07,16,14,57,25.20
2014,07,16,14,58,25.30
2014,07,16,14,59,25.30
2014,07,16,15,00,25.40
2014,07,16,15,01,25.40
2014,07,16,15,02,25.40
2014,07,16,15,03,25.40
2014,07,16,15,04,25.40
2014,07,16,15,05,25.50
2014,07,16,15,06,25.60
2014,07,16,15,07,25.70
2014,07,16,15,08,25.80
2014,07,16,15,09,25.90
2014,07,16,15,10,25.90
2014,07,16,15,11,25.90
2014,07,16,15,12,25.90
2014,07,16,15,13,25.80
2014,07,16,15,14,25.80
2014,07,16,15,15,25.80
2014,07,16,15,16,25.90
2014,07,16,15,17,25.90
2014,07,16,15,18,25.90
2014,07,16,15,19,25.90
2014,07,16,15,20,26.00
2014,07,16,15,21,26.10
2014,07,16,15,22,26.10
2014,07,16,15,23,26.10
2014,07,16,15,24,26.10
2014,07,16,15,25,26.10
2014,07,16,15,26,26.10
2014,07,16,15,27,26.00
2014,07,16,15,28,25.90
2014,07,16,15,29,25.90
2014,07,16,15,30,25.90
2014,07,16,15,31,25.90
2014,07,16,15,32,25.90
2014,07,16,15,33,26.00
2014,07,16,15,34,26.00
2014,07,16,15,35,25.90
2014,07,16,15,36,25.90
2014,07,16,15,37,25.90
2014,07,16,15,38,25.90
2014,07,16,15,39,25.90
2014,07,16,15,40,25.90
2014,07,16,15,41,26.00
2014,07,16,15,42,26.00
2014,07,16,15,43,26.10
2014,07,16,15,44,26.10
2014,07,16,15,45,26.10
2014,07,16,15,46,26.10
2014,07,16,15,47,26.20
2014,07,16,15,48,26.20
2014,07,16,15,49,26.20
2014,07,16,15,50,26.20
2014,07,16,15,51,26.20
2014,07,16,15,52,26.20
2014,07,16,15,53,26.30
2014,07,16,15,54,26.30
2014,07,16,15,55,26.30
2014,07,16,15,56,26.30
2014,07,16,15,57,26.40
2014,07,16,15,58,26.50
2014,07,16,15,59,26.70
2014,07,16,16,00,26.80
2014,07,16,16,01,26.80
2014,07,16,16,02,26.90
2014,07,16,16,03,27.00
2014,07,16,16,04,27.10
2014,07,16,16,05,27.10
2014,07,16,16,06,27.10
2014,07,16,16,07,27.20
2014,07,16,16,08,27.20
2014,07,16,16,09,27.20
2014,07,16,16,10,27.30
2014,07,16,16,11,27.40
2014,07,16,16,12,27.40
2014,07,16,16,13,27.50
2014,07,16,16,14,27.50
2014,07,16,16,15,27.60
2014,07,16,16,16,27.60
2014,07,16,16,17,27.60
2014,07,16,16,18,27.60
2014,07,16,16,19,27.60
2014,07,16,16,20,27.70
2014,07,16,16,21,27.70
2014,07,16,16,22,27.70
2014,07,16,16,23,27.80
2014,07,16,16,24,27.90
2014,07,16,16,25,28.00
2014,07,16,16,26,28.00
2014,07,16,16,27,27.90
2014,07,16,16,28,28.00
2014,07,16,16,29,28.00
2014,07,16,16,30,28.00
2014,07,16,16,31,28.00
2014,07,16,16,32,27.90
2014,07,16,16,33,28.00
2014,07,16,16,34,28.00
2014,07,16,16,35,28.10
2014,07,16,16,36,28.00
2014,07,16,16,37,28.00
2014,07,16,16,38,27.90
2014,07,16,16,39,27.90
2014,07,16,16,40,27.90
2014,07,16,16,41,27.90
2014,07,16,16,42,27.90
2014,07,16,16,43,28.00
2014,07,16,16,44,28.00
2014,07,16,16,45,28.00
2014,07,16,16,46,28.00
2014,07,16,16,47,28.00
2014,07,16,16,48,28.00
2014,07,16,16,49,28.10
2014,07,16,16,50,28.10
2014,07,16,16,51,28.20
2014,07,16,16,52,28.20
2014,07,16,16,53,28.30
2014,07,16,16,54,28.30
2014,07,16,16,55,28.30
2014,07,16,16,56,28.20
2014,07,16,16,57,28.20
2014,07,16,16,58,28.10
2014,07,16,16,59,28.10
2014,07,16,17,00,28.10
2014,07,16,17,01,28.10
2014,07,16,17,02,28.10
2014,07,16,17,03,28.10
2014,07,16,17,04,28.10
2014,07,16,17,05,28.10
2014,07,16,17,06,28.10
2014,07,16,17,07,28.20
2014,07,16,17,08,28.10
2014,07,16,17,09,28.10
2014,07,16,17,10,28.00
2014,07,16,17,11,28.00
2014,07,16,17,12,28.00
2014,07,16,17,13,28.00
2014,07,16,17,14,28.10
2014,07,16,17,15,28.00
2014,07,16,17,16,28.00
2014,07,16,17,17,28.00
2014,07,16,17,18,28.00
2014,07,16,17,19,28.10